Lexington Weather

Lexington, Massachusetts, USA

32°F
11/15/2019 2:08am 
  • Lexington Conditions: Mostly cloudy
  • Temperature: 31.5°F / -0.3°CWarmer 0.6°F than last hour.
  • Dew Point: 29.1°FIncreased 1.2°Fsince last hour.
  • Relative Humidity: 91%Increased 3.0% since last hour.
  • Wind: Wind from SW SW 1 mph, 10-min avg: Calm, gust: 4 mph
  • Barometer: 30.19 in Steady
  • Visibility: 10 miles
  • Snow Today: 0.0 in
  •   

Regional Weather Roundup
for Boston / Norton, MA

        
000
ASUS41 KBOX 140100
RWRBOX

REGIONAL WEATHER ROUNDUP
NATIONAL WEATHER SERVICE BOSTON/NORTON MA
800 PM EST WED NOV 13 2019

NOTE:  "FAIR" INDICATES FEW OR NO CLOUDS BELOW 12,000 FEET WITH NO 
SIGNIFICANT WEATHER AND/OR OBSTRUCTIONS TO VISIBILITY.

MAZALL-140200-
EASTERN MASSACHUSETTS
  
CITY           SKY/WX    TMP DP  RH WIND       PRES   REMARKS
BOSTON         FAIR      27   4  37 NW13G20   30.41R WCI  16          
BEVERLY        FAIR      23   6  48 NW8       30.39R WCI  14          
LAWRENCE       FAIR      22   5  48 W7        30.41R WCI  13          
BEDFORD        FAIR      21   4  47 NW6       30.40R WCI  13          
BLUE HILL        N/A     20   5  52 NW6       30.36R WCI  12          
NORWOOD        FAIR      25   4  40 NW5       30.41R WCI  19          
MARSHFIELD     NOT AVBL                                               
PLYMOUTH       FAIR      22   7  52 NW3       30.41R                  
TAUNTON        FAIR      26   4  38 NW3       30.41R                  
NEW BEDFORD    FAIR      24   5  44 VRB3      30.41R                  
$$

MAZALL-140200-
CAPE COD AND THE ISLANDS
  
CITY           SKY/WX    TMP DP  RH WIND       PRES   REMARKS
FALMOUTH       CLEAR     21   3  45 NW7       30.39R WCI  13          
HYANNIS        NOT AVBL                                               
CHATHAM        FAIR      29  14  53 VRB3      30.39R                  
PROVINCETOWN   FAIR      27  14  58 NW17G25   30.41R WCI  14          
NANTUCKET      FAIR      30  12  47 NW15      30.39R WCI  19          
MARTHAS VNYRD  FAIR      27   5  39 NW12      30.39R WCI  17          
$$
 
MAZALL-140200-
CENTRAL AND WESTERN MASSACHUSETTS
  
CITY           SKY/WX    TMP DP  RH WIND       PRES   REMARKS
WORCESTER      FAIR      17   4  56 W7        30.34R WCI   8          
FITCHBURG      FAIR      20   5  52 NW3       30.40R                  
ORANGE         FAIR      18   6  59 CALM      30.39R                  
SPRINGFIELD    NOT AVBL                                               
WESTFIELD      FAIR      20   6  55 W7        30.41S WCI  11          
NORTH ADAMS    FAIR      16   7  67 CALM      30.39R                  
PITTSFIELD     FAIR      17   5  59 CALM      30.34R                  
$$
 
RIZALL-140200-
RHODE ISLAND
  
CITY           SKY/WX    TMP DP  RH WIND       PRES   REMARKS
PROVIDENCE     FAIR      25   5  42 NW7       30.43R WCI  17          
NEWPORT        FAIR      27   6  41 N14G20    30.40R WCI  16          
BLOCK ISLAND   FAIR      26   8  46 NW10      30.42R WCI  16          
SMITHFIELD     FAIR      19   6  57 NW5       30.40R WCI  12          
WESTERLY       FAIR      26   4  38 NW3       30.43R                  
$$
 
CTZALL-140200-
CONNECTICUT
  
CITY           SKY/WX    TMP DP  RH WIND       PRES   REMARKS
BRADLEY INTL   FAIR      23   6  48 W3        30.42R                  
HARTFORD       FAIR      24   5  44 N7        30.44R WCI  16          
BRIDGEPORT     FAIR      27   4  37 NE6       30.44R WCI  20          
DANBURY        FAIR      21   8  57 NW5       30.42R WCI  15          
GROTON         NOT AVBL                                               
NEW HAVEN      FAIR      27   5  39 N5        30.44R WCI  22          
CHESTER        FAIR      23   3  42 CALM      30.41R                  
MERIDEN        FAIR      23   5  46 NW5       30.44R WCI  17          
WILLIMANTIC    FAIR      22   5  48 NW6       30.42S WCI  14          
OXFORD         FAIR      19   7  59 N5        30.39S WCI  12          
$$

MEZ002-015-021-024-NHZ003-005-008-011-012-014-VTZ005-008-140200-
NORTHERN NEW ENGLAND
  
CITY           SKY/WX    TMP DP  RH WIND       PRES   REMARKS
PORTLAND ME    FAIR      20   7  57 NW10      30.38R WCI   9          
BANGOR ME      FAIR      17   9  70 W8        30.32R WCI   7          
CONCORD NH     FAIR      18   7  62 NW9       30.38R WCI   7          
MANCHESTER NH  FAIR      23   5  46 NW7       30.37R WCI  15          
NASHUA NH      FAIR      20   5  52 CALM      30.40R                  
PORTSMOUTH NH  PTCLDY    21   4  47 W9        30.37R WCI  11          
JAFFREY NH     FAIR      18   5  57 N3        30.33R                  
KEENE NH       FAIR      15   7  70 S3        30.39R                  
BURLINGTON VT  FAIR      12   5  73 E6        30.39F WCI   3          
MT. WASHINGTON MOCLDY    -2 -15  55 N38         N/A  WCI -31          
$$

NYZ052-076-140200-
EASTERN NEW YORK
  
CITY           SKY/WX    TMP DP  RH WIND       PRES   REMARKS
ALBANY         MOCLDY    22   7  52 CALM      30.41S                  
NEW YORK CITY  FAIR      32   9  38 N9        30.42S WCI  24          
$$
 
ANZALL-140200-
MARINE OBSERVATIONS
  
STATION/POSITION TIME  TEMP    WIND        PRES    VSBY  WAVE
                       AIR SEA DIR/SP/G                  HT/PER
                 (UTC) (F)     (DEG/KT/KT) (MB)    (MI)  (FT/S)
BOSTON BUOY      2350   30 52  320/ 19/ 25 1027.6          3/ 4
BUZZARDS BAY     0000   30     350/ 17/ 19 1029.1R
NANTUCKET SOUND  NOT AVBL
MASS BAY-STELLWA 0004   28 51  320/ 21/ 27 1028.0R  1 7/8  3/ 4
ISLE OF SHOALS   0000   25     300/ 22/ 26 1027.6R
S OF BLOCK IS    0030      58                N/A           4/ 5
$$

......................KEY.........................
  SKY/WX - SKY CONDITION/PRESENT WEATHER
  TMP    - TEMPERATURE IN FAHRENHEIT
  DWPT   - DEWPOINT IN FAHRENHEIT
  RH     - RELATIVE HUMIDITY IN PERCENT
  WIND   - DIRECTION AND SPEED IN MPH
  PRES   - MEAN SEA LEVEL PRESSURE IN INCHES OF HG
  WCI    - WIND CHILL INDEX
  VSB    - VISIBILITY IN MILES
  HX     - HEAT INDEX
  TC     - TEMPERATURE IN CELSIUS
  VRB    - VARIABLE WIND DIRECTION
  N/A    - NOT AVAILABLE
  
      

Other recent Regional Weather Roundups

Fri Nov 15, 2:00am

Fri Nov 15, 1:10am

Fri Nov 15, 1:00am

Fri Nov 15, 12:10am

Fri Nov 15, 12:00am

Thu Nov 14, 11:10pm

Thu Nov 14, 11:00pm

Thu Nov 14, 10:10pm

Thu Nov 14, 10:00pm

Thu Nov 14, 9:10pm

Thu Nov 14, 9:00pm

Thu Nov 14, 8:10pm

Thu Nov 14, 8:00pm

Thu Nov 14, 7:10pm

Thu Nov 14, 7:00pm

Thu Nov 14, 6:10pm

Thu Nov 14, 6:01pm

Thu Nov 14, 5:10pm

Thu Nov 14, 5:00pm

Thu Nov 14, 4:10pm

Thu Nov 14, 4:00pm

Thu Nov 14, 3:10pm

Thu Nov 14, 3:00pm

Thu Nov 14, 2:10pm

Thu Nov 14, 2:00pm

Thu Nov 14, 1:10pm

Thu Nov 14, 1:00pm

Thu Nov 14, 12:10pm

Thu Nov 14, 12:01pm

Thu Nov 14, 11:10am

Thu Nov 14, 11:00am

Thu Nov 14, 10:10am

Thu Nov 14, 10:01am

Thu Nov 14, 9:10am

Thu Nov 14, 9:00am

Thu Nov 14, 8:10am

Thu Nov 14, 8:00am

Thu Nov 14, 7:10am

Thu Nov 14, 7:00am

Thu Nov 14, 6:10am

Thu Nov 14, 6:00am

Thu Nov 14, 5:10am

Thu Nov 14, 5:00am

Thu Nov 14, 4:10am

Thu Nov 14, 4:00am

Thu Nov 14, 3:10am

Thu Nov 14, 3:00am

Thu Nov 14, 2:10am

Thu Nov 14, 2:00am

Thu Nov 14, 1:10am

Thu Nov 14, 1:00am

Thu Nov 14, 12:10am

Thu Nov 14, 12:00am

Wed Nov 13, 11:10pm

Wed Nov 13, 11:00pm

Wed Nov 13, 10:10pm

Wed Nov 13, 10:00pm

Wed Nov 13, 9:10pm

Wed Nov 13, 9:00pm

Wed Nov 13, 8:10pm

Wed Nov 13, 7:10pm

Wed Nov 13, 7:00pm

Wed Nov 13, 6:10pm

Wed Nov 13, 6:01pm

Wed Nov 13, 5:10pm

Wed Nov 13, 5:00pm

Wed Nov 13, 4:10pm

Wed Nov 13, 4:00pm

Wed Nov 13, 3:10pm

Wed Nov 13, 3:01pm

Wed Nov 13, 2:10pm

Wed Nov 13, 2:01pm

Wed Nov 13, 1:10pm

Wed Nov 13, 1:00pm

Wed Nov 13, 12:10pm

Wed Nov 13, 12:01pm

Wed Nov 13, 11:10am

Wed Nov 13, 11:00am

Wed Nov 13, 10:10am

Wed Nov 13, 10:00am

Wed Nov 13, 9:10am

Wed Nov 13, 9:00am

Wed Nov 13, 8:10am

Wed Nov 13, 8:00am

Wed Nov 13, 7:10am

Wed Nov 13, 7:00am

Wed Nov 13, 6:10am

Wed Nov 13, 6:00am

Wed Nov 13, 5:10am

Wed Nov 13, 5:00am

Wed Nov 13, 4:10am

Wed Nov 13, 4:00am

Wed Nov 13, 3:10am

Wed Nov 13, 3:00am

Wed Nov 13, 2:10am

Wed Nov 13, 2:00am

Wed Nov 13, 1:10am

Wed Nov 13, 1:00am

Wed Nov 13, 12:10am

Wed Nov 13, 12:00am

Tue Nov 12, 11:10pm

Tue Nov 12, 11:00pm

Tue Nov 12, 10:10pm

Tue Nov 12, 10:00pm

Tue Nov 12, 9:10pm

Tue Nov 12, 9:00pm

Tue Nov 12, 8:10pm

Tue Nov 12, 8:00pm

Tue Nov 12, 7:10pm

Tue Nov 12, 7:01pm

Tue Nov 12, 6:10pm

Tue Nov 12, 6:01pm

Tue Nov 12, 5:10pm

Tue Nov 12, 5:01pm

Tue Nov 12, 4:10pm

Tue Nov 12, 4:01pm

Tue Nov 12, 3:10pm

Tue Nov 12, 3:00pm

Tue Nov 12, 2:10pm

Tue Nov 12, 2:00pm

Tue Nov 12, 1:10pm

Tue Nov 12, 1:00pm

Tue Nov 12, 12:10pm

Tue Nov 12, 12:00pm

Tue Nov 12, 11:10am

Tue Nov 12, 11:00am

Tue Nov 12, 10:10am

Tue Nov 12, 10:01am

Tue Nov 12, 9:10am

Tue Nov 12, 9:00am

Tue Nov 12, 8:10am

Tue Nov 12, 8:00am

Tue Nov 12, 7:10am

Tue Nov 12, 7:00am

Tue Nov 12, 6:10am

Tue Nov 12, 6:00am

Tue Nov 12, 5:10am

Tue Nov 12, 5:01am

Tue Nov 12, 4:10am

Tue Nov 12, 4:00am

Tue Nov 12, 3:10am

Tue Nov 12, 3:01am

Tue Nov 12, 2:10am

Meta data:

ID: 82d177a6-f7ca-45c7-a295-86926926cd13
Link: https://api.weather.gov/products/82d177a6-f7ca-45c7-a295-86926926cd13